YAMAL 202

Last updated on Wed Sep 09 2026 00:02:58 GMT+0000 (Coordinated Universal Time)

1 28089U 03053A 26251.61100833 -.00000098 00000+0 00000+0 0 9992 2 28089 6.5464 69.8911 0004286 110.0140 191.3110 1.00271656 83538
UTC large
Height (km)
Speed (km/s)
/
Latitude / Longitude
Inclination (degrees)
Orbital Period (minutes)
Azimuth
Elevation
Range (km)
Doppler Factor

Next 0 passes for location: London (51.5072 / 0.1276)

No passes found over London.
YAMAL 202